Winnemucca Municipal Airport
KWMC : rendu visible

Aérodrome :











RETROUVEZ-NOUS SUR...

 
LOGIN :

S'inscrire | Disclaimer

   EN    FR    IT 

 









Légende :    VFR   VFR Marginal   IFR   IFR Intensif   IFR Très Intensif
Visi : 
Plafond : 
>= 8 km
>= 3000ft
5 à 8 km
1000 à 3000 ft
1500m à 5 km
500 à 1000 ft
800 à 1500m
200 à 500 ft
< 800m
< 200 ft
Symboles :   Orages  Brouillard  Fortes neiges  Fortes précipitations  Vent > 20 kt






- Altitude de l'aérodrome : 4308 ft


KWMC - Winnemucca Municipal

DERNIER METAR :
  • 250056Z AUTO 02009G15KT 10SM CLR 24/M06 A3007 RMK AO2 SLP158 T02391056

METARs EXPIRÉS :
  • 242356Z AUTO 31008KT 10SM CLR 24/M06 A3008 RMK AO2 SLP161 T02391056 10239 20189 56012
  • 242256Z AUTO 02011KT 300V070 10SM CLR 24/M06 A3008 RMK AO2 SLP159 T02391061

TAF KWMC
Valide du 25 à 00h jusqu'au 26 à 00h UTC


242320Z 2500/2524 VRB05KT P6SM FEW200 SCT250
FM251800 25006KT P6SM BKN250
FIR KZLC / Amérique du Nord



MET'MAP, la Météo Aéronautique d'un coup d'oeil ! - Copyright ORBIFLY Décembre 2007 - Disclaimer

ORBIFLY MET'MAP TEAM :

Programmation & Développement : Alexandra Zaïnal
Sur une idée originale de : Baudouin d'Aumeries
Assistance à la programmation : Marc-Olivier Méhu
Soutien technique & logistique : Manuel Goepfert

Contact : metmap@orbifly.com




SOURCES & CREDITS :

   NOAA       Earth
Advisory